Location: Newark
(46.8000°N, 92.1000°W)
Time: 05:26:06
(UTC+00:00)

AO-85 - Visible Passes

Search period start: 26 November 2020 00:00
Search period end: 06 December 2020 00:00
Orbit: 521 x 762 km, 64.8° (Epoch: 12 March)

Date Brightness Start Highest point End Pass type
(mag) Time Alt. Az. Time Alt. Az. Time Alt. Az.
26 Nov ? 10:48:20 34° NNE 10:49:17 37° NE 10:53:48 10° ESE visible
26 Nov ? 12:25:57 13° NW 12:29:40 36° WSW 12:34:11 10° S visible
27 Nov ? 09:34:59 13° ENE 09:34:59 13° ENE 09:35:55 10° ENE visible
27 Nov ? 11:12:36 47° NNW 11:13:53 75° NE 11:18:48 10° SE visible
27 Nov ? 12:50:47 10° WNW 12:53:50 17° WSW 12:56:59 10° SSW visible
28 Nov ? 09:59:20 23° ENE 09:59:20 23° ENE 10:01:52 10° E visible
28 Nov ? 11:36:57 39° WNW 11:38:18 53° WSW 11:43:07 10° SSE visible
29 Nov ? 10:23:45 39° E 10:23:45 39° E 10:27:11 10° SE visible
29 Nov ? 12:01:23 22° W 12:02:33 25° WSW 12:06:33 10° SSW visible
30 Nov ? 10:48:16 47° SSE 10:48:16 47° SSE 10:51:51 10° SSE visible
30 Nov ? 12:25:54 11° W 12:26:37 11° WSW 12:28:04 10° SW visible
01 Dec ? 09:35:13 11° ESE 09:35:13 11° ESE 09:35:25 10° ESE visible
01 Dec ? 11:12:52 28° SSW 11:12:52 28° SSW 11:15:45 10° S visible
02 Dec ? 09:59:54 13° SE 09:59:54 13° SE 10:00:24 10° SE visible
02 Dec ? 11:37:33 13° SW 11:37:33 13° SW 11:38:31 10° SSW visible
03 Dec ? 10:24:38 10° SSE 10:24:38 10° SSE 10:24:41 10° SSE visible
04 Dec ? 00:33:03 10° SSE 00:33:15 11° SSE 00:33:15 11° SSE visible
05 Dec ? 00:56:29 10° SSW 00:57:50 20° SSW 00:57:50 20° SSW visible
05 Dec ? 23:42:40 10° SE 23:44:43 15° ESE 23:44:43 15° ESE visible
